Terminal Aerodrome Forecast
Issued by NWS Hastings, NE

Home | Current Version | Previous Version | Text Only | Print | Product List | Glossary On
Versions: 1 2 3 4 5 6 7 8 9 10 11 12 13 14 15 16 17 18 19 20 21 22 23 24 25 26 27 28 29 30 31 32 33 34 35 36 37 38 39 40
000
FTUS43 KGID 260625 AAA
TAFGRI
TAF AMD
KGRI 260625Z 2606/2706 31013KT P6SM SCT050 SCT070
     FM261100 34023G33KT P6SM BKN025
     FM261800 34020G30KT P6SM SCT120
     FM270000 03004KT P6SM BKN100=

USA.gov is the U.S. government's official web portal to all federal, state and local government web resources and services.